TimeCDT,TemperatureF,Dew PointF,Humidity,Sea Level PressureIn,VisibilityMPH,Wind Direction,Wind SpeedMPH,Gust SpeedMPH,PrecipitationIn,Events,Conditions,WindDirDegrees,DateUTC
12:15 AM,73.4,71.6,94,29.97,10.0,Calm,Calm,-,N/A,,Clear,0,2013-06-16 05:15:00
12:35 AM,73.4,71.6,94,29.96,10.0,ESE,4.6,-,N/A,,Clear,110,2013-06-16 05:35:00
12:55 AM,75.2,69.8,83,29.96,10.0,Calm,Calm,-,N/A,,Clear,0,2013-06-16 05:55:00
1:15 AM,75.2,71.6,89,29.96,10.0,Calm,Calm,-,N/A,,Clear,0,2013-06-16 06:15:00
1:35 AM,75.2,71.6,89,29.95,10.0,Calm,Calm,-,N/A,,Clear,0,2013-06-16 06:35:00
1:55 AM,75.2,71.6,89,29.94,10.0,Calm,Calm,-,N/A,,Clear,0,2013-06-16 06:55:00
2:15 AM,75.2,71.6,89,29.94,10.0,SE,4.6,-,N/A,,Clear,140,2013-06-16 07:15:00
2:35 AM,75.2,71.6,89,29.94,10.0,SE,4.6,-,N/A,,Clear,140,2013-06-16 07:35:00
2:55 AM,75.2,71.6,89,29.93,10.0,SE,4.6,-,N/A,,Clear,140,2013-06-16 07:55:00
3:15 AM,75.2,71.6,89,29.93,10.0,SE,4.6,-,N/A,,Clear,140,2013-06-16 08:15:00
3:35 AM,75.2,71.6,89,29.93,10.0,SSE,3.5,-,N/A,,Clear,150,2013-06-16 08:35:00
3:55 AM,73.4,71.6,94,29.94,10.0,Calm,Calm,-,N/A,,Clear,0,2013-06-16 08:55:00
4:15 AM,73.4,71.6,94,29.94,7.0,Calm,Calm,-,N/A,,Clear,0,2013-06-16 09:15:00
4:35 AM,73.4,71.6,94,29.94,7.0,Calm,Calm,-,N/A,,Clear,0,2013-06-16 09:35:00
4:55 AM,73.4,71.6,94,29.96,7.0,Calm,Calm,-,N/A,,Clear,0,2013-06-16 09:55:00
5:15 AM,73.4,71.6,94,29.97,7.0,Calm,Calm,-,N/A,,Clear,0,2013-06-16 10:15:00
5:35 AM,75.2,71.6,89,29.97,7.0,Calm,Calm,-,N/A,,Clear,0,2013-06-16 10:35:00
5:55 AM,75.2,71.6,89,29.98,10.0,Calm,Calm,-,N/A,,Clear,0,2013-06-16 10:55:00
6:15 AM,75.2,71.6,89,29.99,10.0,Calm,Calm,-,N/A,,Clear,0,2013-06-16 11:15:00
6:35 AM,75.2,71.6,89,29.99,7.0,Calm,Calm,-,N/A,,Clear,0,2013-06-16 11:35:00
6:55 AM,77.0,73.4,89,29.99,7.0,South,3.5,-,N/A,,Clear,180,2013-06-16 11:55:00
7:15 AM,77.0,73.4,89,30.00,10.0,South,4.6,-,N/A,,Clear,170,2013-06-16 12:15:00
7:35 AM,77.0,71.6,83,30.00,10.0,South,5.8,-,N/A,,Clear,170,2013-06-16 12:35:00
7:55 AM,78.8,73.4,83,30.01,10.0,South,5.8,-,N/A,,Clear,170,2013-06-16 12:55:00
8:15 AM,78.8,71.6,78,30.02,10.0,South,8.1,-,N/A,,Clear,190,2013-06-16 13:15:00
8:35 AM,78.8,71.6,78,30.02,10.0,South,6.9,-,N/A,,Clear,190,2013-06-16 13:35:00
8:55 AM,80.6,71.6,74,30.02,10.0,SSW,9.2,-,N/A,,Clear,210,2013-06-16 13:55:00
9:15 AM,82.4,71.6,70,30.02,10.0,SW,10.4,-,N/A,,Clear,230,2013-06-16 14:15:00
9:35 AM,82.4,71.6,70,30.02,10.0,SW,10.4,-,N/A,,Scattered Clouds,220,2013-06-16 14:35:00
9:55 AM,82.4,71.6,70,30.02,10.0,SSW,9.2,-,N/A,,Scattered Clouds,200,2013-06-16 14:55:00
10:15 AM,84.2,71.6,66,30.02,10.0,South,9.2,-,N/A,,Scattered Clouds,180,2013-06-16 15:15:00
10:35 AM,84.2,71.6,66,30.02,10.0,SSW,6.9,-,N/A,,Scattered Clouds,210,2013-06-16 15:35:00
10:55 AM,86.0,71.6,62,30.02,10.0,SSW,8.1,-,N/A,,Scattered Clouds,210,2013-06-16 15:55:00
11:15 AM,86.0,69.8,58,30.02,10.0,SW,6.9,-,N/A,,Scattered Clouds,220,2013-06-16 16:15:00
11:35 AM,87.8,69.8,55,30.01,10.0,SW,9.2,-,N/A,,Clear,220,2013-06-16 16:35:00
11:55 AM,87.8,69.8,55,30.01,10.0,SW,6.9,-,N/A,,Clear,230,2013-06-16 16:55:00
12:15 PM,89.6,69.8,52,30.00,10.0,SW,6.9,-,N/A,,Clear,230,2013-06-16 17:15:00
12:35 PM,89.6,69.8,52,30.00,10.0,SW,9.2,-,N/A,,Scattered Clouds,230,2013-06-16 17:35:00
12:55 PM,89.6,69.8,52,29.99,10.0,SSW,5.8,-,N/A,,Clear,210,2013-06-16 17:55:00
1:15 PM,89.6,68.0,49,29.98,10.0,SSW,9.2,-,N/A,,Clear,210,2013-06-16 18:15:00
1:35 PM,91.4,69.8,49,29.97,10.0,SW,8.1,-,N/A,,Clear,220,2013-06-16 18:35:00
1:55 PM,91.4,68.0,46,29.97,10.0,WSW,5.8,-,N/A,,Clear,240,2013-06-16 18:55:00
2:15 PM,91.4,69.8,49,29.96,10.0,South,11.5,-,N/A,,Scattered Clouds,190,2013-06-16 19:15:00
2:35 PM,91.4,69.8,49,29.96,10.0,South,9.2,-,N/A,,Clear,180,2013-06-16 19:35:00
2:55 PM,91.4,68.0,46,29.96,10.0,South,6.9,-,N/A,,Scattered Clouds,170,2013-06-16 19:55:00
3:15 PM,91.4,69.8,49,29.95,10.0,SSE,11.5,16.1,N/A,,Scattered Clouds,160,2013-06-16 20:15:00
3:35 PM,91.4,69.8,49,29.94,10.0,SSE,9.2,-,N/A,,Scattered Clouds,150,2013-06-16 20:35:00
3:55 PM,91.4,68.0,46,29.94,10.0,SSE,9.2,-,N/A,,Clear,160,2013-06-16 20:55:00
4:15 PM,91.4,68.0,46,29.93,10.0,South,10.4,-,N/A,,Clear,170,2013-06-16 21:15:00
4:35 PM,91.4,68.0,46,29.93,10.0,SSE,11.5,17.3,N/A,,Clear,150,2013-06-16 21:35:00
4:55 PM,91.4,68.0,46,29.92,10.0,SSE,12.7,-,N/A,,Clear,160,2013-06-16 21:55:00
5:15 PM,91.4,68.0,46,29.92,10.0,South,11.5,-,N/A,,Clear,170,2013-06-16 22:15:00
5:35 PM,91.4,66.2,43,29.91,10.0,SSE,10.4,17.3,N/A,,Clear,160,2013-06-16 22:35:00
5:55 PM,91.4,68.0,46,29.91,10.0,South,6.9,-,N/A,,Clear,180,2013-06-16 22:55:00
6:15 PM,91.4,64.4,41,29.90,10.0,SSE,8.1,-,N/A,,Clear,160,2013-06-16 23:15:00
6:35 PM,91.4,64.4,41,29.89,10.0,SSE,10.4,-,N/A,,Clear,160,2013-06-16 23:35:00
6:55 PM,89.6,64.4,43,29.90,10.0,SSE,6.9,-,N/A,,Clear,160,2013-06-16 23:55:00
7:15 PM,89.6,64.4,43,29.89,10.0,SSE,6.9,-,N/A,,Clear,160,2013-06-17 00:15:00
7:35 PM,87.8,66.2,49,29.90,10.0,SSE,5.8,-,N/A,,Clear,150,2013-06-17 00:35:00
7:55 PM,86.0,68.0,55,29.90,10.0,SE,4.6,-,N/A,,Clear,130,2013-06-17 00:55:00
8:15 PM,84.2,69.8,62,29.89,10.0,SSE,4.6,-,N/A,,Clear,150,2013-06-17 01:15:00
8:35 PM,82.4,68.0,62,29.91,10.0,Calm,Calm,-,N/A,,Clear,0,2013-06-17 01:35:00
9:15 PM,80.6,68.0,65,29.91,10.0,SE,3.5,-,N/A,,Clear,130,2013-06-17 02:15:00
9:35 PM,80.6,68.0,65,29.92,10.0,Calm,Calm,-,N/A,,Clear,0,2013-06-17 02:35:00
9:55 PM,80.6,68.0,65,29.93,10.0,ESE,4.6,-,N/A,,Clear,120,2013-06-17 02:55:00
10:15 PM,78.8,68.0,69,29.94,10.0,Calm,Calm,-,N/A,,Clear,0,2013-06-17 03:15:00
10:35 PM,78.8,68.0,69,29.95,10.0,Calm,Calm,-,N/A,,Scattered Clouds,0,2013-06-17 03:35:00
10:55 PM,78.8,68.0,69,29.96,10.0,Calm,Calm,-,N/A,,Clear,0,2013-06-17 03:55:00
11:15 PM,78.8,68.0,69,29.96,10.0,ESE,3.5,-,N/A,,Clear,120,2013-06-17 04:15:00
11:35 PM,77.0,68.0,74,29.96,10.0,Calm,Calm,-,N/A,,Clear,0,2013-06-17 04:35:00
11:55 PM,78.8,68.0,69,29.96,10.0,ESE,3.5,-,N/A,,Clear,110,2013-06-17 04:55:00